Regional Weather Roundup
Issued by NWS Northern Indiana

Home | Current Version | Previous Version | Text Only | Print | Product List | Glossary Off
Versions: 1 2 3 4 5 6 7 8 9 10 11 12 13 14 15 16 17 18 19 20 21 22 23 24 25 26 27 28 29 30 31 32 33 34 35 36 37 38 39 40 41 42 43 44 45 46 47 48 49 50

000
ASUS43 KIWX 031510
RWRIWX

KIWX WEATHER ROUNDUP
NATIONAL WEATHER SERVICE NORTHERN INDIANA
1100 AM EDT WED JUN 03 2015

NOTE: "FAIR" INDICATES FEW OR NO CLOUDS BELOW 12,000 FEET WITH NO
SIGNIFICANT WEATHER AND/OR OBSTRUCTIONS TO VISIBILITY.

* THESE STATIONS ARE NOT UNDER NWS QUALITY CONTROL. THEY ALSO MAY NOT
  REPORT WEATHER SUCH AS PRECIPITATION OR FOG.

INZ001>027-031600-
NORTHERN INDIANA

CITY           SKY/WX    TMP DP  RH WIND       PRES   REMARKS
GARY*          MOSUNNY   68  54  60 SE7       30.08F
VALPARAISO     SUNNY     66  53  63 S9        30.09F
MICHIGAN CITY* SUNNY     66  52  59 SW8       30.09F
LAPORTE*       SUNNY     67  55  63 SE6       30.09F
KNOX*          MOSUNNY   66  54  63 S9        30.08F
SOUTH BEND     SUNNY     67  51  56 SE8       30.09F
ELKHART*       SUNNY     64  52  63 CALM      30.10F
GOSHEN         MOSUNNY   66  55  67 SE8       30.10F
MONTICELLO*    SUNNY     64  55  74 S6        30.08F
LOGANSPORT*    SUNNY     64  52  63 SE5       30.10F
ROCHESTER*     SUNNY     68  55  64 SE3       30.10S
WARSAW*        PTSUNNY   64  55  72 SE8       30.10F
ANGOLA*        CLOUDY    64  55  72 VRB5      30.11F
FORT WAYNE     CLOUDY    62  55  77 E6        30.11F
HUNTINGTON*    CLOUDY    63  55  75 SE7       30.10F
PERU/GRISSOM   SUNNY     65  55  70 SE5       30.08F
MARION*        PTSUNNY   63  53  69 E5        30.10F

$$
INZ028>050-031600-
CENTRAL INDIANA

CITY           SKY/WX    TMP DP  RH WIND       PRES   REMARKS
LAFAYETTE      MOSUNNY   65  55  70 SE6       30.08F
KOKOMO*        SUNNY     64  55  72 SE5       30.08F
MUNCIE*        CLOUDY    63  55  75 E6        30.10F
INDIANAPOLIS   CLOUDY    62  52  69 SE6       30.08F

$$
MIZ043>046-050>051-056>058-064>065-071>073-077>080-031600-
SOUTHWEST LOWER MICHIGAN

CITY           SKY/WX    TMP DP  RH WIND       PRES   REMARKS
BATTLE CREEK   MOSUNNY   68  53  58 SE9       30.12F
BENTON HARBOR  SUNNY     66  51  58 S7        30.09F
COLDWATER*     PTSUNNY   65  55  69 SE5       30.12F
HILLSDALE*     MOSUNNY   66  55  67 SE7       30.12F
HOLLAND        SUNNY     67  53  61 SE7       30.11F
GRAND RAPIDS   PTSUNNY   66  53  63 E8        30.11F
KALAMAZOO      MOSUNNY   66  53  63 SE7       30.11F
STURGIS*       CLOUDY    63  55  77 S10       30.11S
THREE RIVERS*  PTSUNNY   65  53  65 SE10      30.11F

$$
OHZ001>008-015>018-024>025-031600-
NORTHWEST OHIO

CITY           SKY/WX    TMP DP  RH WIND       PRES   REMARKS
WAUSEON*       PTSUNNY   66  57  72 SE8       30.12F
DEFIANCE       CLOUDY    66  55  67 E7        30.12F
FINDLAY        CLOUDY    67  56  67 E7        30.11S
TOLEDO EXPRESS MOSUNNY   67  53  61 SE9G16    30.12F
TOLEDO METCALF MOSUNNY   68  52  56 SE10      30.13F
LIMA           CLOUDY    64  56  75 NE5       30.11F

$$
AND FOR LAKE MICHIGAN COASTAL AND OPEN LAKE BUOY OBSERVATIONS

STATION/POSITION TEMP    WIND        PRES    VSBY  WAVE
                 AIR SEA DIR/SP/G                  HT/PER
                 (F)     (DEG/KT/KT) (MB)    (MI)  (FT/S)
CALUMET HARBOR    65     180/  5/  6   N/A
MICHIGAN CITY     64     150/  6/  8   N/A
BURNS HARBOR             160/  4/ 10 1019.0S
SAINT JOSEPH      63     300/  2/  5 1019.6R
SOUTH LAKE BUOY   44 39  100/  4/  4 1019.8F         0
4 MI NW BRIDGMAN  58 56  340/  2/  2   N/A           0
MICHIGAN CITY     61 58  190/  2/  4   N/A           1
MICHIGAN CITY CG     55              1021.2      6   0

$$
&&



USA.gov is the U.S. government's official web portal to all federal, state and local government web resources and services.